TimeCDT,TemperatureF,Dew PointF,Humidity,Sea Level PressureIn,VisibilityMPH,Wind Direction,Wind SpeedMPH,Gust SpeedMPH,PrecipitationIn,Events,Conditions,WindDirDegrees,DateUTC
12:53 AM,54.0,52.0,93,29.92,10.0,SSW,9.2,-,0.00,,Overcast,210,2013-03-31 05:53:00
1:36 AM,55.4,51.8,88,29.91,10.0,SSW,9.2,-,N/A,,Overcast,210,2013-03-31 06:36:00
1:53 AM,55.0,52.0,89,29.91,10.0,SW,9.2,-,N/A,,Mostly Cloudy,230,2013-03-31 06:53:00
2:12 AM,55.4,51.8,88,29.91,10.0,SW,6.9,-,N/A,,Overcast,220,2013-03-31 07:12:00
2:53 AM,55.0,52.0,89,29.90,10.0,WSW,4.6,-,N/A,,Overcast,240,2013-03-31 07:53:00
3:02 AM,55.4,51.8,88,29.90,10.0,SW,4.6,-,N/A,,Overcast,230,2013-03-31 08:02:00
3:53 AM,55.0,52.0,89,29.88,10.0,WSW,4.6,-,N/A,,Overcast,240,2013-03-31 08:53:00
4:03 AM,55.4,51.8,88,29.89,10.0,Variable,6.9,-,N/A,,Overcast,0,2013-03-31 09:03:00
4:53 AM,55.0,51.1,86,29.88,10.0,WSW,4.6,-,N/A,,Overcast,250,2013-03-31 09:53:00
5:53 AM,55.0,52.0,89,29.90,10.0,SW,4.6,-,N/A,,Overcast,220,2013-03-31 10:53:00
6:07 AM,55.4,51.8,88,29.90,10.0,SSW,4.6,-,N/A,,Overcast,210,2013-03-31 11:07:00
6:53 AM,55.0,52.0,89,29.91,10.0,SW,4.6,-,N/A,,Overcast,220,2013-03-31 11:53:00
7:02 AM,55.4,51.8,88,29.92,10.0,Calm,Calm,-,N/A,,Overcast,0,2013-03-31 12:02:00
7:53 AM,55.0,52.0,89,29.92,2.0,SW,3.5,-,N/A,,Overcast,230,2013-03-31 12:53:00
8:17 AM,55.4,53.6,94,29.92,2.0,Calm,Calm,-,N/A,,Overcast,0,2013-03-31 13:17:00
8:53 AM,55.9,53.1,90,29.92,2.0,Variable,3.5,-,N/A,,Overcast,0,2013-03-31 13:53:00
9:21 AM,57.2,53.6,88,29.92,7.0,West,3.5,-,N/A,,Overcast,260,2013-03-31 14:21:00
9:53 AM,57.0,53.1,87,29.91,7.0,West,4.6,-,N/A,,Overcast,270,2013-03-31 14:53:00
10:41 AM,57.2,53.6,88,29.92,2.0,Calm,Calm,-,N/A,,Overcast,0,2013-03-31 15:41:00
10:53 AM,57.0,54.0,89,29.92,2.0,West,3.5,-,N/A,,Overcast,270,2013-03-31 15:53:00
11:00 AM,57.2,53.6,88,29.93,2.0,WSW,3.5,-,N/A,,Overcast,250,2013-03-31 16:00:00
11:10 AM,57.2,53.6,88,29.93,2.0,West,4.6,-,N/A,,Overcast,280,2013-03-31 16:10:00
11:32 AM,57.2,53.6,88,29.93,2.0,NW,4.6,-,N/A,,Overcast,320,2013-03-31 16:32:00
11:42 AM,57.2,53.6,88,29.93,2.0,NW,5.8,-,N/A,,Overcast,320,2013-03-31 16:42:00
11:53 AM,57.0,55.0,93,29.92,2.0,NNW,8.1,-,N/A,,Overcast,330,2013-03-31 16:53:00
12:16 PM,55.4,53.6,94,29.93,2.0,NW,8.1,-,0.01,Rain,Light Rain,320,2013-03-31 17:16:00
12:26 PM,55.4,53.6,94,29.93,1.8,NNW,6.9,-,0.02,Rain,Light Rain,330,2013-03-31 17:26:00
12:43 PM,53.6,51.8,94,29.94,2.0,NNW,9.2,-,0.04,Rain,Light Rain,340,2013-03-31 17:43:00
12:50 PM,53.6,51.8,94,29.93,2.5,NNW,10.4,-,0.04,Rain,Light Rain,340,2013-03-31 17:50:00
12:53 PM,54.0,52.0,93,29.93,2.5,North,10.4,-,0.04,Rain,Light Rain,350,2013-03-31 17:53:00
1:08 PM,53.6,51.8,94,29.93,2.5,NNW,11.5,-,0.00,Rain,Light Rain,340,2013-03-31 18:08:00
1:34 PM,53.6,50.0,88,29.93,5.0,NW,5.8,-,0.01,,Overcast,320,2013-03-31 18:34:00
1:53 PM,53.1,50.0,89,29.93,6.0,NNW,5.8,-,0.01,Rain,Light Rain,340,2013-03-31 18:53:00
2:12 PM,53.6,51.8,94,29.93,6.0,NNW,5.8,-,0.01,Rain,Light Rain,330,2013-03-31 19:12:00
2:34 PM,53.6,50.0,88,29.93,7.0,NW,3.5,-,0.01,,Overcast,320,2013-03-31 19:34:00
2:53 PM,53.1,50.0,89,29.91,7.0,Calm,Calm,-,0.01,Rain,Light Rain,0,2013-03-31 19:53:00
3:53 PM,54.0,52.0,93,29.87,8.0,SSE,6.9,-,0.03,,Overcast,160,2013-03-31 20:53:00
4:53 PM,55.9,52.0,87,29.89,10.0,Calm,Calm,-,N/A,,Mostly Cloudy,0,2013-03-31 21:53:00
5:53 PM,55.0,50.0,83,29.90,10.0,NW,3.5,-,N/A,,Overcast,320,2013-03-31 22:53:00
6:53 PM,55.0,50.0,83,29.90,10.0,NW,4.6,-,N/A,,Clear,310,2013-03-31 23:53:00
7:53 PM,51.1,48.9,92,29.92,7.0,Calm,Calm,-,N/A,,Clear,0,2013-04-01 00:53:00
8:53 PM,48.9,46.9,93,29.92,3.0,Calm,Calm,-,N/A,,Clear,0,2013-04-01 01:53:00
9:05 PM,48.2,46.4,93,29.92,4.0,Calm,Calm,-,N/A,,Partly Cloudy,0,2013-04-01 02:05:00
9:53 PM,46.9,46.0,97,29.93,5.0,South,4.6,-,N/A,,Mostly Cloudy,180,2013-04-01 02:53:00
10:00 PM,46.4,44.6,93,29.93,5.0,South,4.6,-,N/A,,Mostly Cloudy,180,2013-04-01 03:00:00
10:26 PM,46.4,44.6,93,29.93,5.0,Calm,Calm,-,N/A,,Partly Cloudy,0,2013-04-01 03:26:00
10:53 PM,43.0,42.1,97,29.93,5.0,South,4.6,-,N/A,,Partly Cloudy,180,2013-04-01 03:53:00
11:09 PM,42.8,41.0,93,29.93,1.0,South,4.6,-,N/A,,Partly Cloudy,170,2013-04-01 04:09:00
11:53 PM,43.0,42.1,97,29.92,4.0,South,4.6,-,N/A,,Partly Cloudy,170,2013-04-01 04:53:00